START_TIME,STEP,MOV.,M29,t_acc.,H22,t_acc.,H26,t_acc.,H30,t_acc.
1986-01-25 21:00:33.260 ,5,0,0.,24.0,0.,24.0,0.,24.0,0.,24.0
1986-01-25 21:00:57.260 ,4,1,0.,24.0,0.,24.0,0.,24.0,0.,24.0
1986-01-25 21:01:21.260 ,4,0,0.,24.0,0.,24.0,0.,24.0,0.,24.0
1986-01-25 21:01:45.260 ,3,1,0.,24.0,0.,24.0,0.,24.0,0.,24.0
1986-01-25 21:02:09.260 ,3,0,0.,24.0,0.,24.0,0.,24.0,0.,24.0
1986-01-25 21:02:33.260 ,2,1,0.,24.0,0.,24.0,0.,24.0,0.,24.0
1986-01-25 21:02:57.260 ,2,0,0.,24.0,0.,24.0,0.,24.0,0.,24.0
1986-01-25 21:03:21.260 ,1,1,0.,24.0,0.,24.0,0.,24.0,0.,24.0
1986-01-25 21:03:45.260 ,1,0,0.,24.0,0.,24.0,0.,24.0,0.,24.0
1986-01-25 21:04:09.250 ,0,1,0.,24.0,0.,24.0,0.,24.0,0.,24.0
1986-01-25 21:04:33.260 ,0,0,0.,24.0,0.,24.0,0.,24.0,0.,24.0
1986-01-25 21:04:57.250 ,0,1,0.,24.0,0.,24.0,0.,24.0,0.,24.0
1986-01-25 21:05:21.250 ,0,0,0.,24.0,0.,24.0,0.,24.0,0.,24.0
1986-01-25 21:05:45.250 ,1,1,0.,24.0,0.,24.0,0.,24.0,0.,24.0
1986-01-25 21:06:09.250 ,1,0,0.,24.0,0.,24.0,0.,24.0,0.,24.0
1986-01-25 21:06:33.250 ,2,1,0.,24.0,0.,24.0,0.,24.0,0.,24.0
1986-01-25 21:06:57.250 ,2,0,0.,24.0,0.,24.0,0.,24.0,0.,24.0
1986-01-25 21:07:21.250 ,3,1,0.,24.0,0.,24.0,0.,24.0,0.,24.0
1986-01-25 21:07:45.250 ,3,0,0.,24.0,0.,24.0,0.,24.0,0.,24.0
1986-01-25 21:08:09.250 ,4,1,0.,24.0,0.,24.0,0.,24.0,0.,24.0
1986-01-25 21:08:33.250 ,4,0,0.,24.0,0.,24.0,0.,24.0,0.,24.0
1986-01-25 21:08:57.250 ,5,1,0.,24.0,0.,24.0,0.,24.0,0.,24.0
1986-01-25 21:09:21.250 ,5,0,0.,24.0,0.,24.0,0.,24.0,0.,24.0
1986-01-25 21:09:45.250 ,6,1,0.,24.0,0.,24.0,0.,24.0,0.,24.0
1986-01-25 21:10:09.250 ,6,0,0.,24.0,0.,24.0,0.,24.0,0.,24.0
1986-01-25 21:10:33.250 ,7,1,0.,24.0,0.,24.0,0.,24.0,0.,24.0
1986-01-25 21:10:57.250 ,7,0,0.,24.0,0.,24.0,0.,24.0,0.,24.0
1986-01-25 21:11:21.250 ,7,1,0.,24.0,0.,24.0,0.,24.0,0.,24.0
1986-01-25 21:11:45.250 ,7,0,0.,24.0,0.,24.0,0.,24.0,0.,24.0
1986-01-25 21:12:09.250 ,6,1,0.,24.0,0.,24.0,0.,24.0,0.,24.0
1986-01-25 21:12:33.250 ,6,0,0.,24.0,0.,24.0,0.,24.0,0.,24.0
1986-01-25 21:12:57.250 ,5,1,0.,24.0,0.,24.0,0.,24.0,0.,24.0
1986-01-25 21:13:21.250 ,5,0,0.,24.0,0.,24.0,0.,24.0,0.,24.0
1986-01-25 21:13:45.250 ,4,1,0.,24.0,0.,24.0,0.,24.0,0.,24.0
1986-01-25 21:14:09.250 ,4,0,0.,24.0,0.,24.0,0.,24.0,0.,24.0
1986-01-25 21:14:33.250 ,3,1,0.,24.0,0.,24.0,0.,24.0,0.,24.0
1986-01-25 21:14:57.250 ,3,0,0.,24.0,0.,24.0,0.,24.0,0.,24.0
1986-01-25 21:15:21.250 ,2,1,0.,24.0,0.,24.0,0.,24.0,0.,24.0
1986-01-25 21:15:45.250 ,2,0,0.,24.0,0.,24.0,0.,24.0,0.,24.0
1986-01-25 21:16:09.250 ,1,1,0.,24.0,0.,24.0,0.,24.0,0.,24.0
1986-01-25 21:16:33.250 ,1,0,0.,24.0,0.,24.0,0.,24.0,0.,24.0
1986-01-25 21:16:57.250 ,0,1,0.,24.0,0.,24.0,0.,24.0,0.,24.0
1986-01-25 21:17:21.250 ,0,0,0.,24.0,0.,24.0,0.,24.0,0.,24.0
1986-01-25 21:17:45.250 ,0,1,0.,24.0,0.,24.0,0.,24.0,0.,24.0
1986-01-25 21:18:09.250 ,0,0,0.,24.0,0.,24.0,0.,24.0,0.,24.0
1986-01-25 21:18:33.250 ,1,1,0.,24.0,0.,24.0,0.,24.0,0.,24.0
1986-01-25 21:18:57.250 ,1,0,0.,24.0,0.,24.0,0.,24.0,0.,24.0
1986-01-25 21:19:21.250 ,2,1,0.,24.0,0.,24.0,0.,24.0,0.,24.0
1986-01-25 21:19:45.250 ,2,0,0.,24.0,0.,24.0,0.,24.0,0.,24.0
1986-01-25 21:20:09.250 ,3,1,0.,24.0,0.,24.0,0.,24.0,0.,24.0
1986-01-25 21:20:33.250 ,3,0,0.,24.0,0.,24.0,0.,24.0,0.,24.0
1986-01-25 21:20:57.250 ,4,1,0.,24.0,0.,24.0,0.,24.0,0.,24.0
1986-01-25 21:21:21.250 ,4,0,0.,24.0,0.,24.0,0.,24.0,0.,24.0
1986-01-25 21:21:45.250 ,5,1,0.,24.0,0.,24.0,0.,24.0,0.,24.0
1986-01-25 21:22:09.250 ,5,0,0.,24.0,0.,24.0,0.,24.0,0.,24.0
1986-01-25 21:22:33.250 ,6,1,0.,24.0,0.,24.0,0.,24.0,0.,24.0
1986-01-25 21:22:57.250 ,6,0,0.,24.0,0.,24.0,0.,24.0,0.,24.0
1986-01-25 21:23:21.250 ,7,1,0.,24.0,0.,24.0,0.,24.0,0.,24.0
1986-01-25 21:23:45.250 ,7,0,0.,24.0,0.,24.0,0.,24.0,0.,24.0
1986-01-25 21:24:09.250 ,7,1,0.,24.0,0.,24.0,0.,24.0,0.,24.0
1986-01-25 21:24:33.250 ,7,0,0.,24.0,0.,24.0,0.,24.0,0.,24.0
1986-01-25 21:24:57.250 ,6,1,0.,24.0,0.,24.0,0.,24.0,0.,24.0
1986-01-25 21:25:21.250 ,6,0,0.,24.0,0.,24.0,0.,24.0,0.,24.0
1986-01-25 21:25:45.250 ,5,1,0.,24.0,0.,24.0,0.,24.0,0.,24.0
1986-01-25 21:26:09.250 ,5,0,0.,24.0,0.,24.0,0.,24.0,0.,24.0
1986-01-25 21:26:33.250 ,4,1,0.,24.0,0.,24.0,0.,24.0,0.,24.0
1986-01-25 21:26:57.250 ,4,0,0.,24.0,0.,24.0,0.,24.0,0.,24.0
1986-01-25 21:27:21.250 ,3,1,0.,24.0,0.,24.0,0.,24.0,0.,24.0
1986-01-25 21:27:45.250 ,3,0,0.,24.0,0.,24.0,0.,24.0,0.,24.0
1986-01-25 21:28:09.250 ,2,1,0.,24.0,0.,24.0,0.,24.0,0.,24.0
1986-01-25 21:28:33.250 ,2,0,0.,24.0,0.,24.0,0.,24.0,0.,24.0
1986-01-25 21:28:57.250 ,1,1,0.,24.0,0.,24.0,0.,24.0,0.,24.0
1986-01-25 21:29:21.250 ,1,0,0.,24.0,0.,24.0,0.,24.0,0.,24.0
1986-01-25 21:29:45.250 ,0,1,0.,24.0,0.,24.0,0.,24.0,0.,24.0
1986-01-25 21:30:09.250 ,0,0,0.,24.0,0.,24.0,0.,24.0,0.,24.0
1986-01-25 21:30:33.250 ,0,1,0.,24.0,0.,24.0,0.,24.0,0.,24.0
1986-01-25 21:30:57.250 ,0,0,0.,24.0,0.,24.0,0.,24.0,0.,24.0
1986-01-25 21:31:21.250 ,1,1,0.,24.0,0.,24.0,0.,24.0,0.,24.0
1986-01-25 21:31:45.250 ,1,0,0.,24.0,0.,24.0,0.,24.0,0.,24.0
1986-01-25 21:32:09.250 ,2,1,0.,24.0,0.,24.0,0.,24.0,0.,24.0
1986-01-25 21:32:33.250 ,2,0,0.,24.0,0.,24.0,0.,24.0,0.,24.0
1986-01-25 21:32:57.250 ,3,1,0.,24.0,0.,24.0,0.,24.0,0.,24.0
1986-01-25 21:33:21.250 ,3,0,0.,24.0,0.,24.0,0.,24.0,0.,24.0
1986-01-25 21:33:45.250 ,4,1,0.,24.0,0.,24.0,0.,24.0,0.,24.0
1986-01-25 21:34:09.250 ,4,0,0.,24.0,0.,24.0,0.,24.0,0.,24.0
1986-01-25 21:34:33.250 ,5,1,0.,24.0,0.,24.0,0.,24.0,0.,24.0
1986-01-25 21:34:57.250 ,5,0,0.,24.0,0.,24.0,0.,24.0,0.,24.0
1986-01-25 21:35:21.250 ,6,1,0.,24.0,0.,24.0,0.,24.0,0.,24.0
1986-01-25 21:35:45.250 ,6,0,0.,24.0,0.,24.0,0.,24.0,0.,24.0
1986-01-25 21:36:09.250 ,7,1,0.,24.0,0.,24.0,0.,24.0,0.,24.0
1986-01-25 21:36:33.250 ,7,0,0.,24.0,0.,24.0,0.,24.0,0.,24.0
1986-01-25 21:36:57.250 ,7,1,0.,24.0,0.,24.0,0.,24.0,0.,24.0
1986-01-25 21:37:21.250 ,7,0,0.,24.0,0.,24.0,0.,24.0,0.,24.0
1986-01-25 21:37:45.250 ,6,1,0.,24.0,0.,24.0,0.,24.0,0.,24.0
1986-01-25 21:38:09.250 ,6,0,0.,24.0,0.,24.0,0.,24.0,0.,24.0
1986-01-25 21:38:33.250 ,5,1,0.,24.0,0.,24.0,0.,24.0,0.,24.0
1986-01-25 21:38:57.250 ,5,0,0.,24.0,0.,24.0,0.,24.0,0.,24.0
1986-01-25 21:39:21.250 ,4,1,0.,24.0,0.,24.0,0.,24.0,0.,24.0
1986-01-25 21:39:45.250 ,4,0,0.,24.0,0.,24.0,0.,24.0,0.,24.0
1986-01-25 21:40:09.250 ,3,1,0.,24.0,0.,24.0,0.,24.0,0.,24.0
1986-01-25 21:40:33.250 ,3,0,0.,24.0,0.,24.0,0.,24.0,0.,24.0
1986-01-25 21:40:57.250 ,2,1,0.,24.0,0.,24.0,0.,24.0,0.,24.0
1986-01-25 21:41:21.250 ,2,0,0.,24.0,0.,24.0,0.,24.0,0.,24.0
1986-01-25 21:41:45.250 ,1,1,0.,24.0,0.,24.0,0.,24.0,0.,24.0
1986-01-25 21:42:09.250 ,1,0,0.,24.0,0.,24.0,0.,24.0,0.,24.0
1986-01-25 21:42:33.250 ,0,1,0.,24.0,0.,24.0,0.,24.0,0.,24.0
1986-01-25 21:42:57.250 ,0,0,0.,24.0,0.,24.0,0.,24.0,0.,24.0
1986-01-25 21:43:21.250 ,0,1,0.,24.0,0.,24.0,0.,24.0,0.,24.0
1986-01-25 21:43:45.250 ,0,0,0.,24.0,0.,24.0,0.,24.0,0.,24.0
1986-01-25 21:44:09.250 ,1,1,0.,24.0,0.,24.0,0.,24.0,0.,24.0
1986-01-25 21:44:33.250 ,1,0,0.,24.0,0.,24.0,0.,24.0,0.,24.0
1986-01-25 21:44:57.250 ,2,1,0.,24.0,0.,24.0,0.,24.0,0.,24.0
1986-01-25 21:45:21.250 ,2,0,0.,24.0,0.,24.0,0.,24.0,0.,24.0
1986-01-25 21:45:45.250 ,3,1,0.,24.0,0.,24.0,0.,24.0,0.,24.0
1986-01-25 21:46:09.250 ,3,0,0.,24.0,0.,24.0,0.,24.0,0.,24.0
1986-01-25 21:46:33.250 ,4,1,0.,24.0,0.,24.0,0.,24.0,0.,24.0
1986-01-25 21:46:57.250 ,4,0,0.,24.0,0.,24.0,0.,24.0,0.,24.0
1986-01-25 21:47:21.250 ,5,1,0.,24.0,0.,24.0,0.,24.0,0.,24.0
1986-01-25 21:47:45.250 ,5,0,0.,24.0,0.,24.0,0.,24.0,0.,24.0
1986-01-25 21:48:09.250 ,6,1,0.,24.0,0.,24.0,0.,24.0,0.,24.0
1986-01-25 21:48:33.250 ,6,0,0.,24.0,0.,24.0,0.,24.0,0.,24.0
1986-01-25 21:48:57.250 ,7,1,0.,24.0,0.,24.0,0.,24.0,0.,24.0
1986-01-25 21:49:21.250 ,7,0,0.,24.0,0.,24.0,0.,24.0,0.,24.0
1986-01-25 21:49:45.250 ,7,1,0.,24.0,0.,24.0,0.,24.0,0.,24.0
1986-01-25 21:50:09.250 ,7,0,0.,24.0,0.,24.0,0.,24.0,0.,24.0
1986-01-25 21:50:33.250 ,6,1,0.,24.0,0.,24.0,0.,24.0,0.,24.0
1986-01-25 21:50:57.250 ,6,0,0.,24.0,0.,24.0,0.,24.0,0.,24.0
1986-01-25 21:51:21.250 ,5,1,0.,24.0,0.,24.0,0.,24.0,0.,24.0
1986-01-25 21:51:45.250 ,5,0,0.,24.0,0.,24.0,0.,24.0,0.,24.0
1986-01-25 21:52:09.250 ,4,1,0.,24.0,0.,24.0,0.,24.0,0.,24.0
1986-01-25 21:52:33.250 ,4,0,0.,24.0,0.,24.0,0.,24.0,0.,24.0
1986-01-25 21:52:57.250 ,3,1,0.,24.0,0.,24.0,0.,24.0,0.,24.0
1986-01-25 21:53:21.250 ,3,0,0.,24.0,0.,24.0,0.,24.0,0.,24.0
1986-01-25 21:53:45.250 ,2,1,0.,24.0,0.,24.0,0.,24.0,0.,24.0
1986-01-25 21:54:09.250 ,2,0,0.,24.0,0.,24.0,0.,24.0,0.,24.0
1986-01-25 21:54:33.250 ,1,1,0.,24.0,0.,24.0,0.,24.0,0.,24.0
1986-01-25 21:54:57.250 ,1,0,0.,24.0,0.,24.0,0.,24.0,0.,24.0
1986-01-25 21:55:21.250 ,0,1,0.,24.0,0.,24.0,0.,24.0,0.,24.0
1986-01-25 21:55:45.250 ,0,0,0.,24.0,0.,24.0,0.,24.0,0.,24.0
1986-01-25 21:56:09.250 ,0,1,0.,24.0,0.,24.0,0.,24.0,0.,24.0
1986-01-25 21:56:33.250 ,0,0,0.,24.0,0.,24.0,0.,24.0,0.,24.0
1986-01-25 21:56:57.250 ,1,1,0.,24.0,0.,24.0,0.,24.0,0.,24.0
1986-01-25 21:57:21.250 ,1,0,0.,24.0,0.,24.0,0.,24.0,0.,24.0
1986-01-25 21:57:45.250 ,2,1,0.,24.0,0.,24.0,0.,24.0,0.,24.0
1986-01-25 21:58:09.250 ,2,0,0.,24.0,0.,24.0,0.,24.0,0.,24.0
1986-01-25 21:58:33.250 ,3,1,0.,24.0,0.,24.0,0.,24.0,0.,24.0
1986-01-25 21:58:57.250 ,3,0,0.,24.0,0.,24.0,0.,24.0,0.,24.0
1986-01-25 21:59:21.250 ,4,1,0.,24.0,0.,24.0,0.,24.0,0.,24.0
1986-01-25 21:59:45.250 ,4,0,0.,24.0,0.,24.0,0.,24.0,0.,24.0
1986-01-25 22:00:09.250 ,5,1,0.,24.0,0.,24.0,0.,24.0,0.,24.0
1986-01-25 22:00:33.250 ,5,0,0.,24.0,0.,24.0,0.,24.0,0.,24.0
1986-01-25 22:00:57.250 ,6,1,0.,24.0,0.,24.0,0.,24.0,0.,24.0
1986-01-25 22:01:21.250 ,6,0,0.,24.0,0.,24.0,0.,24.0,0.,24.0
1986-01-25 22:01:45.250 ,7,1,0.,24.0,0.,24.0,0.,24.0,0.,24.0
1986-01-25 22:02:09.250 ,7,0,0.,24.0,0.,24.0,0.,24.0,0.,24.0
1986-01-25 22:02:33.250 ,7,1,0.,24.0,0.,24.0,0.,24.0,0.,24.0
1986-01-25 22:02:57.250 ,7,0,0.,24.0,0.,24.0,0.,24.0,0.,24.0
1986-01-25 22:03:21.250 ,6,1,0.,24.0,0.,24.0,0.,24.0,0.,24.0
1986-01-25 22:03:45.250 ,6,0,0.,24.0,0.,24.0,0.,24.0,0.,24.0
1986-01-25 22:04:09.250 ,5,1,0.,24.0,0.,24.0,0.,24.0,0.,24.0
1986-01-25 22:04:33.250 ,5,0,0.,24.0,0.,24.0,0.,24.0,0.,24.0
1986-01-25 22:04:57.250 ,4,1,0.,24.0,0.,24.0,0.,24.0,0.,24.0
1986-01-25 22:05:21.250 ,4,0,0.,24.0,0.,24.0,0.,24.0,0.,24.0
1986-01-25 22:05:45.250 ,3,1,0.,24.0,0.,24.0,0.,24.0,0.,24.0
1986-01-25 22:06:09.250 ,3,0,0.,24.0,0.,24.0,0.,24.0,0.,24.0
1986-01-25 22:06:33.250 ,2,1,0.,24.0,0.,24.0,0.,24.0,0.,24.0
1986-01-25 22:06:57.250 ,2,0,0.,24.0,0.,24.0,0.,24.0,0.,24.0
1986-01-25 22:07:21.250 ,1,1,0.,24.0,0.,24.0,0.,24.0,0.,24.0
1986-01-25 22:07:45.250 ,1,0,0.,24.0,0.,24.0,0.,24.0,0.,24.0
1986-01-25 22:08:09.250 ,0,1,0.,24.0,0.,24.0,0.,24.0,0.,24.0
1986-01-25 22:08:33.250 ,0,0,0.,24.0,0.,24.0,0.,24.0,0.,24.0
1986-01-25 22:08:57.250 ,0,1,0.,24.0,0.,24.0,0.,24.0,0.,24.0
1986-01-25 22:09:21.250 ,0,0,0.,24.0,0.,24.0,0.,24.0,0.,24.0
1986-01-25 22:09:45.250 ,1,1,0.,24.0,0.,24.0,0.,24.0,0.,24.0
1986-01-25 22:10:09.250 ,1,0,0.,24.0,0.,24.0,0.,24.0,0.,24.0
1986-01-25 22:10:33.250 ,2,1,0.,24.0,0.,24.0,0.,24.0,0.,24.0
1986-01-25 22:10:57.250 ,2,0,0.,24.0,0.,24.0,0.,24.0,0.,24.0
1986-01-25 22:11:21.250 ,3,1,0.,24.0,0.,24.0,0.,24.0,0.,24.0
1986-01-25 22:11:45.250 ,3,0,0.,24.0,0.,24.0,0.,24.0,0.,24.0
1986-01-25 22:12:09.250 ,4,1,0.,24.0,0.,24.0,0.,24.0,0.,24.0
1986-01-25 22:12:33.250 ,4,0,0.,24.0,0.,24.0,0.,24.0,0.,24.0
1986-01-25 22:12:57.250 ,5,1,0.,24.0,0.,24.0,0.,24.0,0.,24.0
1986-01-25 22:13:21.250 ,5,0,0.,24.0,0.,24.0,0.,24.0,0.,24.0
1986-01-25 22:13:45.250 ,6,1,0.,24.0,0.,24.0,0.,24.0,0.,24.0
1986-01-25 22:14:09.250 ,6,0,0.,24.0,0.,24.0,0.,24.0,0.,24.0
1986-01-25 22:14:33.250 ,7,1,0.,24.0,0.,24.0,0.,24.0,0.,24.0
1986-01-25 22:14:57.250 ,7,0,0.,24.0,0.,24.0,0.,24.0,0.,24.0
1986-01-25 22:15:21.250 ,7,1,0.,24.0,0.,24.0,0.,24.0,0.,24.0
1986-01-25 22:15:45.250 ,7,0,0.,24.0,0.,24.0,0.,24.0,0.,24.0
1986-01-25 22:16:09.250 ,6,1,0.,24.0,0.,24.0,0.,24.0,0.,24.0
1986-01-25 22:16:33.250 ,6,0,0.,24.0,0.,24.0,0.,24.0,0.,24.0
1986-01-25 22:16:57.250 ,5,1,0.,24.0,0.,24.0,0.,24.0,0.,24.0
1986-01-25 22:17:21.250 ,5,0,0.,24.0,0.,24.0,0.,24.0,0.,24.0
1986-01-25 22:17:45.250 ,4,1,0.,24.0,0.,24.0,0.,24.0,0.,24.0
1986-01-25 22:18:09.250 ,4,0,0.,24.0,0.,24.0,0.,24.0,0.,24.0
1986-01-25 22:18:33.250 ,3,1,0.,24.0,0.,24.0,0.,24.0,0.,24.0
1986-01-25 22:18:57.250 ,3,0,0.,24.0,0.,24.0,0.,24.0,0.,24.0
1986-01-25 22:19:21.250 ,2,1,0.,24.0,0.,24.0,0.,24.0,0.,24.0
1986-01-25 22:19:45.250 ,2,0,0.,24.0,0.,24.0,0.,24.0,0.,24.0
1986-01-25 22:20:09.250 ,1,1,0.,24.0,0.,24.0,0.,24.0,0.,24.0
1986-01-25 22:20:33.250 ,1,0,0.,24.0,0.,24.0,0.,24.0,0.,24.0
1986-01-25 22:20:57.250 ,0,1,0.,24.0,0.,24.0,0.,24.0,0.,24.0
1986-01-25 22:21:21.250 ,0,0,0.,24.0,0.,24.0,0.,24.0,0.,24.0
1986-01-25 22:21:45.250 ,0,1,0.,24.0,0.,24.0,0.,24.0,0.,24.0
1986-01-25 22:22:09.250 ,0,0,0.,24.0,0.,24.0,0.,24.0,0.,24.0
1986-01-25 22:22:33.250 ,1,1,0.,24.0,0.,24.0,0.,24.0,0.,24.0
1986-01-25 22:22:57.250 ,1,0,0.,24.0,0.,24.0,0.,24.0,0.,24.0
1986-01-25 22:23:21.250 ,2,1,0.,24.0,0.,24.0,0.,24.0,0.,24.0
1986-01-25 22:23:45.250 ,2,0,0.,24.0,0.,24.0,0.,24.0,0.,24.0
1986-01-25 22:24:09.250 ,3,1,0.,24.0,0.,24.0,0.,24.0,0.,24.0
1986-01-25 22:24:33.250 ,3,0,0.,24.0,0.,24.0,0.,24.0,0.,24.0
1986-01-25 22:24:57.250 ,4,1,0.,24.0,0.,24.0,0.,24.0,0.,24.0
1986-01-25 22:25:21.250 ,4,0,0.,24.0,0.,24.0,0.,24.0,0.,24.0
1986-01-25 22:25:45.250 ,5,1,0.,24.0,0.,24.0,0.,24.0,0.,24.0
1986-01-25 22:26:09.250 ,5,0,0.,24.0,0.,24.0,0.,24.0,0.,24.0
1986-01-25 22:26:33.250 ,6,1,0.,24.0,0.,24.0,0.,24.0,0.,24.0
1986-01-25 22:26:57.250 ,6,0,0.,24.0,0.,24.0,0.,24.0,0.,24.0
1986-01-25 22:27:21.250 ,7,1,0.,24.0,0.,24.0,0.,24.0,0.,24.0
1986-01-25 22:27:45.250 ,7,0,0.,24.0,0.,24.0,0.,24.0,0.,24.0
1986-01-25 22:28:09.250 ,7,1,0.,24.0,0.,24.0,0.,24.0,0.,24.0
1986-01-25 22:28:33.250 ,7,0,0.,24.0,0.,24.0,0.,24.0,0.,24.0
1986-01-25 22:28:57.250 ,6,1,0.,24.0,0.,24.0,0.,24.0,0.,24.0
1986-01-25 22:29:21.250 ,6,0,0.,24.0,0.,24.0,0.,24.0,0.,24.0
1986-01-25 22:29:45.250 ,5,1,0.,24.0,0.,24.0,0.,24.0,0.,24.0
1986-01-25 22:30:09.250 ,5,0,0.,24.0,0.,24.0,0.,24.0,0.,24.0
1986-01-25 22:30:33.250 ,4,1,0.,24.0,0.,24.0,0.,24.0,0.,24.0
1986-01-25 22:30:57.250 ,4,0,0.,24.0,0.,24.0,0.,24.0,0.,24.0
1986-01-25 22:31:21.250 ,3,1,0.,24.0,0.,24.0,0.,24.0,0.,24.0
1986-01-25 22:31:45.250 ,3,0,0.,24.0,0.,24.0,0.,24.0,0.,24.0
1986-01-25 22:32:09.250 ,2,1,0.,24.0,0.,24.0,0.,24.0,0.,24.0
1986-01-25 22:32:33.250 ,2,0,0.,24.0,0.,24.0,0.,24.0,0.,24.0
1986-01-25 22:32:57.250 ,1,1,0.,24.0,0.,24.0,0.,24.0,0.,24.0
1986-01-25 22:33:21.250 ,1,0,0.,24.0,0.,24.0,0.,24.0,0.,24.0
1986-01-25 22:33:45.250 ,0,1,0.,24.0,0.,24.0,0.,24.0,0.,24.0
1986-01-25 22:34:09.250 ,0,0,0.,24.0,0.,24.0,0.,24.0,0.,24.0
1986-01-25 22:34:33.250 ,0,1,0.,24.0,0.,24.0,0.,24.0,0.,24.0
1986-01-25 22:34:57.250 ,0,0,0.,24.0,0.,24.0,0.,24.0,0.,24.0
1986-01-25 22:35:21.250 ,1,1,0.,24.0,0.,24.0,0.,24.0,0.,24.0
1986-01-25 22:35:45.250 ,1,0,0.,24.0,0.,24.0,0.,24.0,0.,24.0
1986-01-25 22:36:09.250 ,2,1,0.,24.0,0.,24.0,0.,24.0,0.,24.0
1986-01-25 22:36:33.250 ,2,0,0.,24.0,0.,24.0,0.,24.0,0.,24.0
1986-01-25 22:36:57.250 ,3,1,0.,24.0,0.,24.0,0.,24.0,0.,24.0
1986-01-25 22:37:21.250 ,3,0,0.,24.0,0.,24.0,0.,24.0,0.,24.0
1986-01-25 22:37:45.250 ,4,1,0.,24.0,0.,24.0,0.,24.0,0.,24.0
1986-01-25 22:38:09.250 ,4,0,0.,24.0,0.,24.0,0.,24.0,0.,24.0
1986-01-25 22:38:33.250 ,5,1,0.,24.0,0.,24.0,0.,24.0,0.,24.0
1986-01-25 22:38:57.250 ,5,0,0.,24.0,0.,24.0,0.,24.0,0.,24.0
1986-01-25 22:39:21.250 ,6,1,0.,24.0,0.,24.0,0.,24.0,0.,24.0
1986-01-25 22:39:45.250 ,6,0,0.,24.0,0.,24.0,0.,24.0,0.,24.0
1986-01-25 22:40:09.250 ,7,1,0.,24.0,0.,24.0,0.,24.0,0.,24.0
1986-01-25 22:40:33.250 ,7,0,0.,24.0,0.,24.0,0.,24.0,0.,24.0
1986-01-25 22:40:57.250 ,7,1,0.,24.0,0.,24.0,0.,24.0,0.,24.0
1986-01-25 22:41:21.250 ,7,0,0.,24.0,0.,24.0,0.,24.0,0.,24.0
1986-01-25 22:41:45.250 ,6,1,0.,24.0,0.,24.0,0.,24.0,0.,24.0
1986-01-25 22:42:09.250 ,6,0,0.,24.0,0.,24.0,0.,24.0,0.,24.0
1986-01-25 22:42:33.250 ,5,1,0.,24.0,0.,24.0,0.,24.0,0.,24.0
1986-01-25 22:42:57.250 ,5,0,0.,24.0,0.,24.0,0.,24.0,0.,24.0
1986-01-25 22:43:21.250 ,4,1,0.,24.0,0.,24.0,0.,24.0,0.,24.0
1986-01-25 22:43:45.250 ,4,0,0.,24.0,0.,24.0,0.,24.0,0.,24.0
1986-01-25 22:44:09.250 ,3,1,0.,24.0,0.,24.0,0.,24.0,0.,24.0
1986-01-25 22:44:33.250 ,3,0,0.,24.0,0.,24.0,0.,24.0,0.,24.0
1986-01-25 22:44:57.250 ,2,1,0.,24.0,0.,24.0,0.,24.0,0.,24.0
1986-01-25 22:45:21.250 ,2,0,0.,24.0,0.,24.0,0.,24.0,0.,24.0
1986-01-25 22:45:45.250 ,1,1,0.,24.0,0.,24.0,0.,24.0,0.,24.0
1986-01-25 22:46:09.250 ,1,0,0.,24.0,0.,24.0,0.,24.0,0.,24.0
1986-01-25 22:46:33.250 ,0,1,0.,24.0,0.,24.0,0.,24.0,0.,24.0
1986-01-25 22:46:57.250 ,0,0,0.,24.0,0.,24.0,0.,24.0,0.,24.0
1986-01-25 22:47:21.250 ,0,1,0.,24.0,0.,24.0,0.,24.0,0.,24.0
1986-01-25 22:47:45.250 ,0,0,0.,24.0,0.,24.0,0.,24.0,0.,24.0
1986-01-25 22:48:09.250 ,1,1,0.,24.0,0.,24.0,0.,24.0,0.,24.0
1986-01-25 22:48:33.250 ,1,0,0.,24.0,0.,24.0,0.,24.0,0.,24.0
1986-01-25 22:48:57.250 ,2,1,0.,24.0,0.,24.0,0.,24.0,0.,24.0
1986-01-25 22:49:21.250 ,2,0,0.,24.0,0.,24.0,0.,24.0,0.,24.0
1986-01-25 22:49:45.250 ,3,1,0.,24.0,0.,24.0,0.,24.0,0.,24.0
1986-01-25 22:50:09.250 ,3,0,0.,24.0,0.,24.0,0.,24.0,0.,24.0
1986-01-25 22:50:33.250 ,4,1,0.,24.0,0.,24.0,0.,24.0,0.,24.0
1986-01-25 22:50:57.250 ,4,0,0.,24.0,0.,24.0,0.,24.0,0.,24.0
1986-01-25 22:51:21.250 ,5,1,0.,24.0,0.,24.0,0.,24.0,0.,24.0
1986-01-25 22:51:45.250 ,5,0,0.,24.0,0.,24.0,0.,24.0,0.,24.0
1986-01-25 22:52:09.250 ,6,1,0.,24.0,0.,24.0,0.,24.0,0.,24.0
1986-01-25 22:52:33.250 ,6,0,0.,24.0,0.,24.0,0.,24.0,0.,24.0
1986-01-25 22:52:57.250 ,7,1,0.,24.0,0.,24.0,0.,24.0,0.,24.0
1986-01-25 22:53:21.250 ,7,0,0.,24.0,0.,24.0,0.,24.0,0.,24.0
1986-01-25 22:53:45.250 ,7,1,0.,24.0,0.,24.0,0.,24.0,0.,24.0
1986-01-25 22:54:09.250 ,7,0,0.,24.0,0.,24.0,0.,24.0,0.,24.0
1986-01-25 22:54:33.250 ,6,1,0.,24.0,0.,24.0,0.,24.0,0.,24.0
1986-01-25 22:54:57.250 ,6,0,0.,24.0,0.,24.0,0.,24.0,0.,24.0
1986-01-25 22:55:21.250 ,5,1,0.,24.0,0.,24.0,0.,24.0,0.,24.0
1986-01-25 22:55:45.250 ,5,0,0.,24.0,0.,24.0,0.,24.0,0.,24.0
1986-01-25 22:56:09.250 ,4,1,0.,24.0,0.,24.0,0.,24.0,0.,24.0
1986-01-25 22:56:33.250 ,4,0,0.,24.0,0.,24.0,0.,24.0,0.,24.0
1986-01-25 22:56:57.250 ,3,1,0.,24.0,0.,24.0,0.,24.0,0.,24.0
1986-01-25 22:57:21.250 ,3,0,0.,24.0,0.,24.0,0.,24.0,0.,24.0
1986-01-25 22:57:45.250 ,2,1,0.,24.0,0.,24.0,0.,24.0,0.,24.0
1986-01-25 22:58:09.250 ,2,0,0.,24.0,0.,24.0,0.,24.0,0.,24.0
1986-01-25 22:58:33.250 ,1,1,0.,24.0,0.,24.0,0.,24.0,0.,24.0
1986-01-25 22:58:57.250 ,1,0,0.,24.0,0.,24.0,0.,24.0,0.,24.0
1986-01-25 22:59:21.250 ,0,1,0.,24.0,0.,24.0,0.,24.0,0.,24.0
1986-01-25 22:59:45.250 ,0,0,0.,24.0,0.,24.0,0.,24.0,0.,24.0
1986-01-25 23:00:09.250 ,0,1,0.,24.0,0.,24.0,0.,24.0,0.,24.0
1986-01-25 23:00:33.250 ,0,0,0.,24.0,0.,24.0,0.,24.0,0.,24.0
1986-01-25 23:00:57.250 ,1,1,0.,24.0,0.,24.0,0.,24.0,0.,24.0
1986-01-25 23:01:21.250 ,1,0,0.,24.0,0.,24.0,0.,24.0,0.,24.0
1986-01-25 23:01:45.250 ,2,1,0.,24.0,0.,24.0,0.,24.0,0.,24.0
1986-01-25 23:02:09.250 ,2,0,0.,24.0,0.,24.0,0.,24.0,0.,24.0
1986-01-25 23:02:33.250 ,3,1,0.,24.0,0.,24.0,0.,24.0,0.,24.0
1986-01-25 23:02:57.250 ,3,0,0.,24.0,0.,24.0,0.,24.0,0.,24.0
1986-01-25 23:03:21.250 ,4,1,0.,24.0,0.,24.0,0.,24.0,0.,24.0
1986-01-25 23:03:45.250 ,4,0,0.,24.0,0.,24.0,0.,24.0,0.,24.0
1986-01-25 23:04:09.250 ,5,1,0.,24.0,0.,24.0,0.,24.0,0.,24.0
1986-01-25 23:04:33.250 ,5,0,0.,24.0,0.,24.0,0.,24.0,0.,24.0
1986-01-25 23:04:57.250 ,6,1,0.,24.0,0.,24.0,0.,24.0,0.,24.0
1986-01-25 23:05:21.250 ,6,0,0.,24.0,0.,24.0,0.,24.0,0.,24.0
1986-01-25 23:05:45.250 ,7,1,0.,24.0,0.,24.0,0.,24.0,0.,24.0
1986-01-25 23:06:09.250 ,7,0,0.,24.0,0.,24.0,0.,24.0,0.,24.0
1986-01-25 23:06:33.250 ,7,1,0.,24.0,0.,24.0,0.,24.0,0.,24.0
1986-01-25 23:06:57.250 ,7,0,0.,24.0,0.,24.0,0.,24.0,0.,24.0
1986-01-25 23:07:21.250 ,6,1,0.,24.0,0.,24.0,0.,24.0,0.,24.0
1986-01-25 23:07:45.250 ,6,0,0.,24.0,0.,24.0,0.,24.0,0.,24.0
1986-01-25 23:08:09.250 ,5,1,0.,24.0,0.,24.0,0.,24.0,0.,24.0
1986-01-25 23:08:33.250 ,5,0,0.,24.0,0.,24.0,0.,24.0,0.,24.0
1986-01-25 23:08:57.250 ,4,1,0.,24.0,0.,24.0,0.,24.0,0.,24.0
1986-01-25 23:09:21.250 ,4,0,0.,24.0,0.,24.0,0.,24.0,0.,24.0
1986-01-25 23:09:45.250 ,3,1,0.,24.0,0.,24.0,0.,24.0,0.,24.0
1986-01-25 23:10:09.250 ,3,0,0.,24.0,0.,24.0,0.,24.0,0.,24.0
1986-01-25 23:10:33.250 ,2,1,0.,24.0,0.,24.0,0.,24.0,0.,24.0
1986-01-25 23:10:57.250 ,2,0,0.,24.0,0.,24.0,0.,24.0,0.,24.0
1986-01-25 23:11:21.250 ,1,1,0.,24.0,0.,24.0,0.,24.0,0.,24.0
1986-01-25 23:11:45.250 ,1,0,0.,24.0,0.,24.0,0.,24.0,0.,24.0
1986-01-25 23:12:09.250 ,0,1,0.,24.0,0.,24.0,0.,24.0,0.,24.0
1986-01-25 23:12:33.250 ,0,0,0.,24.0,0.,24.0,0.,24.0,0.,24.0
1986-01-25 23:12:57.250 ,0,1,0.,24.0,0.,24.0,0.,24.0,0.,24.0
1986-01-25 23:13:21.250 ,0,0,0.,24.0,0.,24.0,0.,24.0,0.,24.0
1986-01-25 23:13:45.250 ,1,1,0.,24.0,0.,24.0,0.,24.0,0.,24.0
1986-01-25 23:14:09.250 ,1,0,0.,24.0,0.,24.0,0.,24.0,0.,24.0
1986-01-25 23:14:33.250 ,2,1,0.,24.0,0.,24.0,0.,24.0,0.,24.0
1986-01-25 23:14:57.250 ,2,0,0.,24.0,0.,24.0,0.,24.0,0.,24.0
1986-01-25 23:15:21.250 ,3,1,0.,24.0,0.,24.0,0.,24.0,0.,24.0
1986-01-25 23:15:45.250 ,3,0,0.,24.0,0.,24.0,0.,24.0,0.,24.0
1986-01-25 23:16:09.250 ,4,1,0.,24.0,0.,24.0,0.,24.0,0.,24.0
1986-01-25 23:16:33.250 ,4,0,0.,24.0,0.,24.0,0.,24.0,0.,24.0
1986-01-25 23:16:57.250 ,5,1,0.,24.0,0.,24.0,0.,24.0,0.,24.0
1986-01-25 23:17:21.250 ,5,0,0.,24.0,0.,24.0,0.,24.0,0.,24.0
1986-01-25 23:17:45.250 ,6,1,0.,24.0,0.,24.0,0.,24.0,0.,24.0
1986-01-25 23:18:09.250 ,6,0,0.,24.0,0.,24.0,0.,24.0,0.,24.0
1986-01-25 23:18:33.250 ,7,1,0.,24.0,0.,24.0,0.,24.0,0.,24.0
1986-01-25 23:18:57.250 ,7,0,0.,24.0,0.,24.0,0.,24.0,0.,24.0
1986-01-25 23:19:21.250 ,7,1,0.,24.0,0.,24.0,0.,24.0,0.,24.0
1986-01-25 23:19:45.250 ,7,0,0.,24.0,0.,24.0,0.,24.0,0.,24.0
1986-01-25 23:20:09.250 ,6,1,0.,24.0,0.,24.0,0.,24.0,0.,24.0
1986-01-25 23:20:33.250 ,6,0,0.,24.0,0.,24.0,0.,24.0,0.,24.0
1986-01-25 23:20:57.240 ,5,1,0.,24.0,0.,24.0,0.,24.0,0.,24.0
1986-01-25 23:21:21.240 ,5,0,0.,24.0,0.,24.0,0.,24.0,0.,24.0
1986-01-25 23:21:45.240 ,4,1,0.,24.0,0.,24.0,0.,24.0,0.,24.0
1986-01-25 23:22:09.240 ,4,0,0.,24.0,0.,24.0,0.,24.0,0.,24.0
1986-01-25 23:22:33.240 ,3,1,0.,24.0,0.,24.0,0.,24.0,0.,24.0
1986-01-25 23:22:57.240 ,3,0,0.,24.0,0.,24.0,0.,24.0,0.,24.0
1986-01-25 23:23:21.240 ,2,1,0.,24.0,0.,24.0,0.,24.0,0.,24.0
1986-01-25 23:23:45.240 ,2,0,0.,24.0,0.,24.0,0.,24.0,0.,24.0
1986-01-25 23:24:09.240 ,1,1,0.,24.0,0.,24.0,0.,24.0,0.,24.0
1986-01-25 23:24:33.240 ,1,0,0.,24.0,0.,24.0,0.,24.0,0.,24.0
1986-01-25 23:24:57.240 ,0,1,0.,24.0,0.,24.0,0.,24.0,0.,24.0
1986-01-25 23:25:21.240 ,0,0,0.,24.0,0.,24.0,0.,24.0,0.,24.0
1986-01-25 23:25:45.240 ,0,1,0.,24.0,0.,24.0,0.,24.0,0.,24.0
1986-01-25 23:26:09.240 ,0,0,0.,24.0,0.,24.0,0.,24.0,0.,24.0
1986-01-25 23:26:33.240 ,1,1,0.,24.0,0.,24.0,0.,24.0,0.,24.0
1986-01-25 23:26:57.240 ,1,0,0.,24.0,0.,24.0,0.,24.0,0.,24.0
1986-01-25 23:27:21.240 ,2,1,0.,24.0,0.,24.0,0.,24.0,0.,24.0
1986-01-25 23:27:45.240 ,2,0,0.,24.0,0.,24.0,0.,24.0,0.,24.0
1986-01-25 23:28:09.240 ,3,1,0.,24.0,0.,24.0,0.,24.0,0.,24.0
1986-01-25 23:28:33.240 ,3,0,0.,24.0,0.,24.0,0.,24.0,0.,24.0
1986-01-25 23:28:57.240 ,4,1,0.,24.0,0.,24.0,0.,24.0,0.,24.0
1986-01-25 23:29:21.240 ,4,0,0.,24.0,0.,24.0,0.,24.0,0.,24.0
1986-01-25 23:29:45.240 ,5,1,0.,24.0,0.,24.0,0.,24.0,0.,24.0
1986-01-25 23:30:09.240 ,5,0,0.,24.0,0.,24.0,0.,24.0,0.,24.0
1986-01-25 23:30:33.240 ,6,1,0.,24.0,0.,24.0,0.,24.0,0.,24.0
1986-01-25 23:30:57.240 ,6,0,0.,24.0,0.,24.0,0.,24.0,0.,24.0
1986-01-25 23:31:21.240 ,7,1,0.,24.0,0.,24.0,0.,24.0,0.,24.0
1986-01-25 23:31:45.240 ,7,0,0.,24.0,0.,24.0,0.,24.0,0.,24.0
1986-01-25 23:32:09.240 ,7,1,0.,24.0,0.,24.0,0.,24.0,0.,24.0
1986-01-25 23:32:33.240 ,7,0,0.,24.0,0.,24.0,0.,24.0,0.,24.0
1986-01-25 23:32:57.240 ,6,1,0.,24.0,0.,24.0,0.,24.0,0.,24.0
1986-01-25 23:33:21.240 ,6,0,0.,24.0,0.,24.0,0.,24.0,0.,24.0
1986-01-25 23:33:45.240 ,5,1,0.,24.0,0.,24.0,0.,24.0,0.,24.0
1986-01-25 23:34:09.240 ,5,0,0.,24.0,0.,24.0,0.,24.0,0.,24.0
1986-01-25 23:34:33.240 ,4,1,0.,24.0,0.,24.0,0.,24.0,0.,24.0